This demonstration page uses our WeatherBlox Daily Observations layout. Learn more.

39.92423, -83.80882

Hourly Observations for August 24, 2017

Temp ( °F °C ) Dew Point ( °F °C ) Humidity (%) Winds ( mph kmh ) Pressure ( in mb ) Visibility ( mi km ) Precip ( " mm )
12:56 am 00:56 Clear 59 15 53 11.7 81 81 NW 5 7 30.03 1017 10 16.0934 0 0
1:56 am 01:56 Clear 57 13.9 52 11.1 83 83 NW 5 7 30.03 1017 10 16.0934 0 0
2:56 am 02:56 Clear 57 13.9 52 11.1 83 83 NW 5 7 30.03 1017 10 16.0934 0 0
3:56 am 03:56 Clear 56 13.3 51 10.6 84 84 NW 6 9 30.03 1017 10 16.0934 0 0
4:56 am 04:56 Clear 55 12.8 51 10.6 87 87 NNW 6 9 30.03 1017 10 16.0934 0 0
5:56 am 05:56 Clear 53 11.7 50 10 89 89 NW 6 9 30.04 1017 10 16.0934 0 0
6:56 am 06:56 Clear 52 11.1 50 10 93 93 Calm 30.05 1018 10 16.0934 0 0
7:56 am 07:56 Sunny 55 12.8 52 11.1 90 90 NW 6 9 30.06 1018 10 16.0934 0 0
8:56 am 08:56 Sunny 59 15 53 11.7 81 81 NNW 7 11 30.07 1018 10 16.0934 0 0
9:56 am 09:56 Sunny 64 17.8 56 13.3 75 75 NNW 8 13 30.08 1019 10 16.0934 0 0
10:56 am 10:56 Sunny 68 20 55 12.8 63 63 NW 9 15 30.08 1019 10 16.0934 0 0
11:56 am 11:56 Sunny 70 21.1 53 11.7 55 55 NW 9 15 30.08 1019 10 16.0934 0 0
12:56 pm 12:56 Sunny 72 22.2 53 11.7 52 52 NNW 10 17 30.08 1019 10 16.0934 0 0
1:56 pm 13:56 Sunny 73 22.8 51 10.6 46 46 NNW 9 15 30.07 1018 10 16.0934 0 0
2:56 pm 14:56 Sunny 74 23.3 50 10 43 43 NW 6 9 30.07 1018 10 16.0934 0 0
3:56 pm 15:56 Sunny 74 23.3 50 10 43 43 NNW 9 15 30.06 1018 10 16.0934 0 0
4:56 pm 16:56 Partly Cloudy 74 23.3 50 10 43 43 NNW 8 13 30.06 1018 10 16.0934 0 0
5:56 pm 17:56 Mostly Cloudy 72 22.2 51 10.6 48 48 NNW 8 13 30.06 1018 10 16.0934 0 0
6:56 pm 18:56 Mostly Sunny 71 21.7 52 11.1 51 51 NNW 9 15 30.06 1018 10 16.0934 0 0
7:56 pm 19:56 Sunny 67 19.4 53 11.7 61 61 N 7 11 30.07 1018 10 16.0934 0 0
8:56 pm 20:56 Mostly Clear 64 17.8 52 11.1 65 65 NNE 7 11 30.08 1019 10 16.0934 0 0
9:56 pm 21:56 Cloudy 63 17.2 51 10.6 65 65 NE 8 13 30.1 1019 10 16.0934 0 0
10:56 pm 22:56 Clear 59 15 51 10.6 75 75 NE 8 13 30.11 1020 10 16.0934 0 0
11:56 pm 23:56 Mostly Clear 56 13.3 51 10.6 84 84 NE 7 11 30.12 1020 10 16.0934 0 0

Powered by AerisWeather